Flag for Germany Weather past 2 weeks in Soest, North Rhine-Westphalia, Germany

Now
52 °F

Sunny.


Feels Like: 49 °F
Forecast: 46 / 65 °F
Wind: 8 mph from Southwest

Location: Dortmund / Wickede

Current Time: Aug 23, 2014 at 10:02:15 PM

Latest Report: Aug 23, 2014 at 9:20 PM


Visibility: 10 mi

Pressure: 29.95 "Hg

Humidity: 82%

Dew point: 46 °F

Location of SoestLocation

Historic Weather in Soest — Graph

°F

Soest temperature yesterday

Maximum temperature yesterday: 64 °F (at 12:20 PM)
Minimum temperature yesterday: 52 °F (at 5:20 AM)
Average temperature yesterday: 58 °F

Past Weeks' High & Low Weather Summary

 TemperatureHumidityPressure
High75 °F (Aug 10, 1:20 PM)94% (Aug 15, 7:20 AM)30.09 "Hg (Aug 15, 7:20 AM)
Low46 °F (Aug 21, 5:20 AM)43% (Aug 12, 4:20 PM)29.59 "Hg (Aug 10, 7:20 PM)
Average60 °F70%29.86 "Hg
* Reported Aug 8 8:20 PM — Aug 23 8:50 PM, Soest, Weather by CustomWeather, © 2014

Note: Actual official high and low records may vary slightly from our data, if they occured in-between our weather recording intervals... More about our weather records

Advertising

Soest weather history for previous 24 hours

 ConditionsComfort  
Time TempWeatherWind HumidityBarometerVisibility
8:50 PM
Aug 23
54 °FScattered clouds.6 mph77%29.95 "HgN/A
8:20 PM57 °FScattered clouds.3 mph67%29.95 "HgN/A
7:50 PM55 °FScattered clouds.5 mph72%29.95 "HgN/A
7:20 PM57 °FSunny.8 mph63%29.92 "Hg10 mi
6:50 PM57 °FPassing clouds.8 mph67%29.92 "HgN/A
6:20 PM57 °FSunny.9 mph67%29.92 "Hg10 mi
5:50 PM57 °FSunny.8 mph67%29.92 "Hg10 mi
5:20 PM57 °FSunny.9 mph67%29.92 "Hg10 mi
4:50 PM55 °FPassing clouds.7 mph77%29.92 "HgN/A
4:20 PM55 °FScattered clouds.5 mph77%29.92 "HgN/A
3:50 PM54 °FRain showers. Partly sunny.13 mph77%29.95 "Hg5 mi
3:20 PM59 °FScattered showers. Scattered clouds.6 mph63%29.92 "HgN/A
2:50 PM55 °FSprinkles. Scattered clouds.10 mph67%29.92 "HgN/A
2:20 PM63 °FPartly sunny.8 mph56%29.92 "HgN/A
1:50 PM63 °FScattered clouds.8 mph59%29.92 "HgN/A
1:20 PM61 °FPartly sunny.8 mph59%29.92 "HgN/A
12:50 PM61 °FScattered clouds.12 mph63%29.92 "HgN/A
12:20 PM59 °FPassing clouds.7 mph68%29.92 "HgN/A
11:50 AM61 °FScattered clouds.14 mph72%29.92 "HgN/A
11:20 AM57 °FThundershowers. Scattered clouds.10 mph72%29.92 "HgN/A
10:50 AM57 °FScattered clouds.8 mph72%29.92 "HgN/A
10:20 AM59 °FScattered clouds.7 mph72%29.92 "HgN/A
9:50 AM57 °FPassing clouds.7 mph82%29.92 "HgN/A
9:20 AM55 °FPassing clouds.7 mph82%29.92 "HgN/A
8:50 AM55 °FScattered clouds.7 mph82%29.92 "HgN/A
8:20 AM54 °FSunny.7 mph88%29.92 "Hg10 mi
7:50 AM52 °FSunny.7 mph88%29.89 "Hg10 mi
7:20 AM52 °FPassing clouds.7 mph88%29.89 "HgN/A
6:50 AM52 °FPassing clouds.9 mph88%29.89 "Hg4 mi
6:20 AM50 °FPassing clouds.7 mph94%29.89 "HgN/A
5:50 AM50 °FPassing clouds.7 mph88%29.89 "HgN/A
5:20 AM50 °FPassing clouds.6 mph88%29.89 "HgN/A
Weather by CustomWeather, © 2014

See weather overviewHow to use our weather pages